Location: De Har
(53.3413°N, 6.6858°E)
Time: 09:07:54
(UTC+00:00)

Cosmos 2084 - Pass Details

Date: 22 April 2026
Orbit: 544 x 553 km, 62.8° (Epoch: 15 May)

Event Time Altitude Azimuth Distance (km) Brightness Sun altitude
Exits shadow 00:46:36 77° 120° (ESE) 575 3.2 -22.6°
Drops below altitude 10° 00:50:40 10° 51° (NE) 1,841 6.8 -22.4°
Sets 00:52:53 0° 50° (NE) 2,738 7.9 -22.3°
